{"data":{"norad_id":64392,"epoch":"2026-09-20T02:04:14.106432Z","epoch_age_seconds":170856,"freshness":"FRESH","line1":"1 64392U 25127Y   26263.08627438  .00026127  00000+0  95512-3 0  9990","line2":"2 64392  42.9985 162.2648 0001302 268.9890  91.0812 15.27596322 72248","mean_motion":15.27596322,"eccentricity":0.0001302,"inclination_deg":42.9985,"raan_deg":162.2648,"arg_perigee_deg":268.989,"mean_anomaly_deg":91.0812,"bstar":0.00095512,"rev_number":7224,"period_min":94.26574149607,"perigee_km":482.10690246864,"apogee_km":483.89354260139,"semimajor_km":6861.137222535,"source":"CELESTRAK","updated_at":"2026-09-21T09:00:35.345269Z"}}